Wind_Speed
22 21 20 19 19 19 19 18 17 17 17 15 16 17 18 17 19 19 20 21 22 22 21 23 26 28 23 10 12 1 4 8 12 10 8 8 5 8 10 6 8 9 5 4 6 3 5
26 25 25 22 22 22 22 21 19 20 18 16 18 19 20 20 23 21 21 20 23 22 22 23 23 27 13 17 3 2 2 3 7 10 9 8 7 8 7 8 8 10 11 12 12 10 9
23 30 27 25 26 25 25 24 22 21 21 20 21 20 19 18 20 20 21 22 21 22 23 21 20 18 15 20 10 6 4 5 4 6 8 5 9 8 10 8 7 8 15 16 16 12 6
11 12 17 22 25 25 27 28 26 21 21 20 14 14 15 18 19 20 19 21 23 25 24 21 20 11 9 18 14 10 10 9 7 6 5 5 9 10 9 10 12 15 15 15 20 13 8
11 11 6 5 11 15 13 15 17 16 14 12 12 12 14 16 17 19 19 22 24 25 23 20 12 9 13 5 12 13 13 13 10 7 6 6 7 9 11 11 11 14 12 14 10 12 8
12 15 14 12 10 8 8 8 9 10 9 10 13 14 13 14 14 13 15 19 20 23 16 11 14 11 19 15 3 4 8 11 7 8 9 12 6 9 10 11 11 12 6 10 13 10 9
10 10 10 12 13 15 16 14 12 12 12 13 14 13 11 13 11 10 13 12 9 7 10 10 8 12 13 7 2 10 11 10 11 11 12 13 12 12 15 17 9 9 15 16 15 16 18
11 12 11 11 11 11 12 13 14 15 15 15 14 11 10 9 9 7 7 6 6 6 12 19 23 24 28 28 9 13 16 9 14 15 15 12 16 17 12 5 8 12 16 17 16 15 5
12 12 12 12 11 10 11 13 13 11 11 12 14 13 11 8 5 8 10 14 7 11 9 21 24 23 25 25 24 19 16 14 16 16 15 17 17 2 5 10 14 12 16 15 13 13 15
15 14 13 13 14 13 14 13 15 11 9 8 8 12 11 5 4 12 15 13 3 5 7 10 8 7 23 18 23 22 28 19 17 17 16 16 20 18 10 12 13 11 7 8 10 12 13
17 18 17 17 17 16 15 15 14 13 11 9 9 10 10 14 7 11 7 6 1 3 6 6 10 4 2 12 2 11 23 16 18 17 12 16 10 6 12 14 3 8 8 8 13 16 16
17 18 18 18 20 20 18 15 16 15 13 11 9 9 11 13 15 2 3 3 2 4 10 5 7 8 11 16 13 4 5 10 11 17 18 16 1 3 10 6 1 9 10 16 15 13 12
19 18 20 20 21 21 19 16 17 16 14 11 10 10 12 10 9 13 5 8 4 7 3 6 6 10 14 13 17 9 12 13 10 7 12 15 17 11 6 8 10 9 10 7 6 7 10
19 20 19 21 21 22 21 19 19 17 14 10 10 12 13 16 18 3 9 6 11 10 19 6 1 12 14 12 15 12 11 13 17 13 9 12 10 16 11 12 7 10 7 4 7 7 11
19 20 22 21 22 23 23 22 21 18 14 10 8 10 14 15 21 8 7 11 11 18 16 14 8 8 13 12 4 13 14 15 15 13 6 2 6 9 6 3 2 6 5 4 6 9 7
18 19 21 23 23 23 24 23 22 20 17 13 8 8 13 12 19 12 5 21 18 17 14 11 18 12 13 17 11 12 12 10 13 1 3 4 3 6 8 6 10 11 9 4 3 3 8
19 20 21 21 24 24 24 25 24 23 20 15 7 3 7 19 15 2 11 15 24 27 18 12 13 15 14 13 13 15 7 9 7 5 4 4 4 5 10 8 11 10 11 9 11 11 8
22 22 23 23 22 24 25 25 26 26 23 19 6 4 14 25 6 3 8 24 12 23 13 15 9 14 17 16 15 17 17 17 11 7 6 9 6 7 13 13 16 10 9 11 4 10 8
25 25 24 24 23 25 25 27 28 29 30 21 4 5 10 13 9 9 13 15 22 23 12 11 13 15 6 7 3 12 13 8 6 9 2 7 4 5 10 11 13 7 11 14 9 3 8
27 26 26 24 23 24 27 28 29 32 36 29 4 4 3 3 10 19 18 24 22 14 19 16 15 10 7 5 8 5 8 4 3 4 8 3 6 8 8 9 5 8 13 10 9 5 10
28 27 26 29 26 27 27 30 30 35 39 33 5 6 7 5 13 19 19 15 24 13 20 19 14 17 12 9 14 10 9 8 6 5 5 3 6 10 12 13 13 14 14 11 15 15 14
29 28 28 29 30 26 28 29 32 38 38 27 4 7 10 9 17 21 17 13 19 22 8 6 13 17 14 13 13 12 11 13 9 10 10 9 4 2 4 12 14 17 11 16 17 17 18
27 27 28 30 32 28 28 30 33 37 44 17 19 15 3 11 17 16 20 22 20 17 17 14 21 21 17 14 12 10 2 5 11 12 13 9 7 7 12 13 14 13 9 12 16 16 16
26 27 27 27 29 27 28 29 34 38 49 17 17 15 8 7 13 17 22 24 17 16 16 3 8 10 3 4 8 5 3 2 3 5 5 8 11 8 9 10 14 9 14 13 15 12 15
26 26 27 27 29 31 29 30 34 40 52 41 18 18 6 11 12 18 21 22 19 6 4 5 8 9 9 7 4 4 4 5 11 12 13 12 10 6 8 9 13 17 12 12 12 13 9
26 26 26 25 28 29 31 30 30 40 45 46 30 27 7 9 11 16 15 19 8 4 6 12 13 5 3 3 4 9 7 8 9 7 20 16 11 8 7 10 7 9 3 9 5 6 8
26 25 26 25 25 26 27 28 30 32 43 42 24 24 6 3 1 4 8 13 11 10 6 12 8 3 5 4 5 8 11 12 13 13 6 11 11 12 9 10 10 13 6 7 6 1 4
26 26 27 27 26 24 29 33 33 35 40 45 17 18 6 2 5 2 4 8 6 6 6 4 8 5 4 5 6 6 7 10 13 13 11 11 8 9 12 14 15 13 1 5 3 4 6
26 27 28 27 26 29 30 33 37 36 44 42 13 19 8 5 2 6 4 2 17 14 5 3 5 7 6 5 5 5 7 5 11 9 13 12 8 9 9 5 5 7 6 8 11 8 5
Wind_Direction
251 250 250 249 252 253 256 260 266 270 277 282 286 289 295 298 300 305 303 307 310 316 324 328 333 336 336 309 283 321 8 346 319 305 318 341 9 352 333 347 316 271 330 333 297 271 255
252 253 252 252 254 257 259 261 264 268 273 278 280 283 284 292 296 296 295 299 301 307 317 319 329 333 305 282 289 259 266 292 281 308 314 353 349 327 278 310 294 342 299 284 276 253 254
252 251 251 253 256 259 262 262 263 262 267 273 272 274 278 283 288 290 291 294 293 300 307 310 319 331 291 261 276 260 255 266 274 301 313 355 336 323 338 289 24 287 289 283 250 227 232
253 249 241 250 253 257 259 257 249 255 262 258 260 274 289 291 293 291 287 288 290 294 296 299 310 314 263 279 270 250 252 240 238 262 288 304 318 294 273 296 285 264 263 268 273 162 148
255 256 260 254 246 243 243 243 243 249 247 251 262 283 292 293 295 293 287 287 287 289 286 293 302 213 275 223 236 249 235 234 213 247 258 295 287 268 281 257 275 242 239 277 201 172 164
256 266 267 264 268 254 248 248 246 239 231 261 281 288 291 294 297 301 300 296 292 283 289 266 253 286 243 267 137 221 210 230 227 252 264 233 242 246 245 251 267 320 303 309 302 182 208
259 255 258 261 259 261 259 259 257 251 262 279 280 276 281 294 308 307 310 311 252 208 232 233 274 227 302 224 181 230 199 210 236 246 256 271 253 249 284 306 338 312 296 295 284 289 301
257 256 256 261 266 264 257 253 254 259 263 269 269 271 276 280 291 284 271 256 332 314 289 269 249 257 266 279 267 244 209 214 224 243 256 258 246 252 278 314 298 294 283 276 275 268 276
250 255 258 258 256 259 263 262 260 255 262 260 264 263 262 276 266 244 236 260 298 317 269 274 250 244 248 243 249 239 206 219 250 261 253 253 258 267 268 268 269 263 261 269 285 318 304
255 257 256 256 255 253 262 265 259 247 250 262 272 256 248 236 242 231 237 264 251 324 282 271 223 243 238 231 252 240 239 223 230 249 258 266 262 253 235 258 258 255 326 331 295 289 280
260 260 255 255 255 253 252 257 252 242 232 246 262 263 240 217 333 211 338 188 284 278 283 4 131 78 193 188 307 211 225 237 241 245 227 258 255 223 247 251 315 268 338 290 283 279 283
261 260 258 255 249 248 248 246 238 230 231 247 257 259 243 241 255 238 179 98 297 240 244 240 136 183 178 202 235 138 196 235 230 244 246 246 321 260 250 291 264 287 289 273 254 249 255
259 258 258 255 248 246 242 243 237 233 231 238 248 247 235 208 229 234 174 139 211 230 237 204 181 184 198 196 220 199 195 198 198 201 226 228 240 204 228 241 226 231 258 270 263 232 235
268 261 258 252 247 243 238 238 236 232 228 229 252 244 243 225 217 204 175 194 220 229 233 343 243 184 207 191 209 207 210 208 221 238 262 222 219 202 162 235 291 225 255 291 290 309 306
269 266 255 252 246 241 238 237 233 230 223 223 237 243 241 229 218 201 202 213 225 229 266 221 201 233 216 215 241 201 224 228 219 214 227 272 234 94 133 191 235 349 212 293 303 299 282
275 268 262 252 246 242 238 233 233 227 216 208 215 240 233 214 212 217 216 222 232 246 249 279 256 197 227 216 186 199 202 224 242 115 242 337 288 224 199 180 258 257 291 284 244 244 263
274 274 264 256 249 242 238 235 232 221 211 201 220 235 203 177 165 213 217 224 230 259 279 242 245 249 241 247 214 227 220 218 258 156 271 189 161 249 211 201 252 221 228 240 238 238 269
269 269 269 261 255 249 242 236 228 217 205 192 211 233 168 158 176 198 214 221 248 273 232 254 263 257 244 245 244 237 256 235 219 173 201 231 192 230 230 227 236 257 297 299 283 276 287
266 269 264 264 257 252 249 236 229 217 197 190 208 227 197 191 194 218 226 235 236 244 243 243 224 232 246 260 251 222 237 55 144 184 228 149 222 237 251 262 249 239 261 241 234 322 272
260 261 262 258 261 255 247 242 229 218 202 206 180 204 216 223 234 213 215 228 226 228 249 227 237 218 188 226 227 215 198 145 189 218 66 16 237 256 252 300 340 253 254 284 263 222 264
258 260 257 257 257 252 248 244 234 223 212 197 196 210 193 188 223 225 233 230 222 217 222 219 222 218 195 198 222 219 207 188 218 151 179 225 248 261 271 286 302 286 280 293 277 276 267
257 256 256 255 254 257 251 246 240 225 209 211 191 202 185 228 197 220 232 227 235 223 181 237 224 218 220 205 216 238 234 207 188 176 216 204 224 302 288 272 269 270 270 268 261 264 269
256 257 256 250 249 255 255 249 240 227 203 205 226 257 199 236 222 193 215 229 238 232 211 229 233 231 220 232 228 234 235 342 213 205 193 225 235 219 258 257 271 262 230 234 255 266 266
253 255 253 249 245 250 252 251 242 233 201 196 216 230 201 234 216 211 208 216 217 245 232 261 237 228 228 352 70 45 15 304 290 240 257 221 236 235 268 292 270 263 264 255 257 243 242
249 248 250 250 247 247 251 252 244 243 214 202 225 220 227 233 240 210 216 223 231 155 121 179 228 249 178 175 161 195 223 256 246 244 234 234 255 251 244 250 273 281 270 244 246 257 316
250 250 244 249 249 251 246 252 250 235 214 196 224 228 241 224 237 235 217 205 174 149 186 196 225 155 186 187 204 211 208 212 212 217 214 222 218 236 232 248 257 255 278 45 3 280 50
251 251 243 249 250 250 245 253 251 240 197 195 212 218 239 227 245 195 196 190 151 176 190 153 133 158 210 219 202 221 233 252 251 228 197 201 210 220 232 252 265 274 281 153 239 13 125
250 251 246 247 248 256 256 255 249 227 200 199 195 190 209 224 40 351 157 137 142 177 163 163 163 201 184 212 211 219 239 238 244 246 211 188 199 208 228 247 258 253 39 262 350 191 284
252 252 252 246 256 261 263 241 225 219 203 184 167 180 112 71 25 334 332 248 202 191 140 206 184 183 179 197 225 233 252 221 243 247 230 258 239 207 202 215 37 7 27 351 310 309 340
Height
824 825 826 826 828 830 830 832 833 835 835 832 833 834 834 831 832 830 829 828 825 824 819 817 812 809 802 793 783 782 782 783 783 782 776 771 766 768 770 766 763 766 759 759 756 759 761
819 821 823 822 825 827 827 829 829 832 832 830 831 831 831 829 830 828 828 825 824 823 819 818 813 810 808 799 782 782 782 781 782 780 776 775 773 770 770 767 771 764 764 761 756 756 756
815 816 819 818 822 822 824 824 827 828 828 828 829 829 828 826 825 826 826 824 822 820 818 816 813 814 808 792 782 780 781 781 782 781 778 777 777 775 769 768 762 766 774 761 751 753 759
810 812 811 813 815 817 819 819 821 823 824 825 827 826 825 824 822 823 822 822 820 819 815 813 813 811 800 782 781 779 780 779 780 781 780 778 778 775 774 765 765 767 766 773 744 749 759
810 810 809 811 812 811 814 816 817 817 819 823 824 823 822 823 820 820 819 818 817 815 812 812 811 808 792 779 777 775 777 777 777 779 779 779 776 774 769 776 773 756 771 760 756 748 754
806 808 808 810 812 810 812 813 815 817 817 821 822 821 820 821 818 817 819 816 813 811 808 808 806 807 783 777 771 773 773 775 776 776 776 775 773 775 769 769 781 766 761 756 756 751 754
803 805 806 808 808 808 810 811 814 815 817 817 819 819 817 821 817 817 819 815 812 804 806 793 782 782 770 771 776 774 773 775 775 774 781 769 774 775 763 758 759 766 770 767 755 745 751
801 804 803 805 806 806 806 809 811 812 813 813 817 816 817 816 817 815 819 816 808 812 801 789 783 774 773 772 773 770 771 776 774 779 768 771 773 760 754 761 769 772 774 770 756 746 754
799 801 801 803 804 805 807 807 808 808 810 811 814 815 816 814 813 816 818 813 811 810 800 779 769 763 766 769 767 767 764 769 774 775 770 775 761 754 763 765 768 771 773 766 766 757 755
797 798 798 800 802 802 804 805 807 805 808 811 811 815 814 813 818 812 812 811 810 811 800 769 756 753 756 759 761 758 759 764 769 774 770 766 754 755 760 768 763 772 759 765 768 776 782
793 795 794 797 799 800 801 802 804 805 807 809 811 812 809 815 811 808 812 808 812 811 813 746 749 754 752 760 759 757 754 757 767 766 769 766 755 764 769 764 759 768 762 772 772 774 772
788 790 791 793 796 799 799 799 801 803 805 806 807 808 810 812 811 810 812 812 815 819 800 756 751 758 763 762 760 758 761 761 758 765 756 761 750 758 761 757 765 766 772 770 766 767 783
784 784 786 788 791 795 796 796 799 802 803 804 805 807 809 807 809 811 812 814 826 808 757 753 754 756 759 762 763 763 766 769 768 777 771 762 758 756 760 769 762 770 780 788 780 772 775
779 781 780 784 787 791 792 793 796 800 801 801 805 803 804 806 807 808 811 815 812 769 768 746 752 752 761 754 758 762 765 768 759 755 760 765 771 754 756 767 765 762 768 786 794 791 777
774 776 777 779 782 785 787 791 793 796 799 801 802 800 801 802 805 808 810 808 777 771 756 752 754 757 759 753 758 763 762 764 753 753 768 765 761 750 756 758 764 768 776 766 782 780 789
770 771 773 774 778 779 782 784 789 793 795 800 799 799 796 798 802 807 807 787 770 759 750 752 756 753 762 753 763 762 759 749 752 751 750 762 774 755 757 763 766 769 763 784 782 803 796
765 767 768 769 772 774 776 780 784 788 793 796 800 795 787 793 799 801 793 780 772 762 754 759 756 754 753 753 755 757 753 747 748 756 758 762 779 770 760 769 772 766 773 771 774 779 789
760 762 763 764 766 768 770 775 779 783 789 792 795 790 786 788 797 797 790 774 772 767 761 757 753 754 755 756 758 758 756 752 749 754 766 763 767 779 768 758 752 757 767 769 785 785 780
754 756 757 759 761 763 765 767 773 777 782 788 786 786 786 787 786 782 775 774 772 766 764 760 755 750 748 757 763 753 751 754 752 757 762 763 775 782 777 767 755 764 766 764 767 776 786
747 750 750 754 754 756 759 762 766 770 775 781 782 784 784 780 773 765 768 767 767 765 764 755 755 749 756 760 753 757 755 762 761 759 769 765 768 773 779 768 766 773 768 760 765 783 783
740 742 743 745 748 749 753 755 760 762 768 773 772 770 768 772 773 766 760 757 759 763 755 753 761 757 754 762 757 756 754 762 767 773 768 771 779 775 771 768 767 767 768 770 771 770 778
732 734 736 738 740 743 745 748 751 756 762 765 759 749 752 749 754 768 763 758 756 746 757 766 754 754 751 749 752 758 757 757 765 769 771 769 780 785 790 778 774 773 774 771 771 770 770
725 727 728 731 733 735 738 740 743 747 752 752 757 747 745 744 740 757 753 748 743 744 747 762 762 754 748 744 744 746 749 751 751 759 766 772 775 780 782 769 764 767 771 770 763 760 761
718 719 721 723 725 728 730 732 735 738 736 745 749 751 746 739 731 738 741 748 750 754 751 765 762 759 757 750 755 756 758 758 759 760 760 768 772 774 777 774 783 760 748 749 750 749 748
710 712 714 715 717 719 722 725 727 729 730 738 744 745 739 735 726 728 733 733 737 752 766 765 762 756 760 754 758 763 768 767 764 762 764 767 771 775 778 773 762 754 746 746 749 751 745
702 704 706 708 710 711 714 716 719 721 722 729 738 741 737 730 726 720 722 729 746 762 765 760 762 756 756 757 760 762 759 760 758 755 754 761 767 776 775 779 771 751 738 741 747 757 750
694 695 697 700 701 703 705 707 710 714 712 725 732 734 735 732 726 726 729 727 737 756 759 751 756 762 762 762 761 761 756 748 752 750 762 759 765 772 774 772 758 744 739 744 760 760 756
686 687 688 691 693 696 697 699 702 708 712 719 724 730 732 733 732 731 731 733 738 743 746 753 759 761 761 760 757 754 752 746 745 740 744 752 759 763 765 766 764 739 744 753 747 747 748
677 678 679 681 685 687 687 690 693 699 706 714 720 727 733 736 743 741 738 737 739 743 747 753 749 748 750 756 752 748 747 740 741 745 736 747 740 748 745 745 745 741 748 747 745 745 747